OSCAR 7 1 07530U 74089B 25346.97352808 -.00000026 00000-0 12737-3 0 9997 2 07530 101.9967 353.2437 0012373 126.2103 290.5947 12.53694166337189 OSCAR 11 (UOSAT 2) 1 14781U 84021B 25346.86053170 .00002939 00000-0 30918-3 0 9993 2 14781 97.7811 309.8871 0009320 81.9065 278.3210 14.90143516229375 OSCAR 19 (LUSAT) 1 20442U 90005G 25346.96495255 .00000253 00000-0 10736-3 0 9991 2 20442 98.8962 358.5372 0012162 36.6836 323.5178 14.34044751875702 EYESAT A 1 22825U 93061C 25346.71892467 .00000219 00000-0 10067-3 0 9991 2 22825 98.7147 48.9861 0007345 289.8294 70.2097 14.30876799680333 ITAMSAT 1 22826U 93061D 25346.89334425 .00000236 00000-0 10613-3 0 9992 2 22826 98.7095 49.0602 0007820 270.5442 89.4844 14.31297698680665 RADIO ROSTO 1 23439U 94085A 25347.04627539 -.00000015 00000-0 78282-3 0 9991 2 23439 64.8157 244.2551 0149678 38.4513 322.6966 11.27583010274911 JAS 2 1 24278U 96046B 25346.92086481 -.00000018 00000-0 19147-4 0 9992 2 24278 98.5462 216.0321 0349166 219.5046 138.0164 13.53262901447976 TECHSAT 1B 1 25397U 98043D 25346.91750823 .00000164 00000-0 91120-4 0 9993 2 25397 98.9920 330.1336 0002046 56.9971 303.1404 14.24377113424810 ISS (ZARYA) 1 25544U 98067A 25346.86355306 .00014033 00000-0 25741-3 0 9999 2 25544 51.6304 141.8664 0003245 240.6311 119.4354 15.49550036542873 PCSAT 1 26931U 01043C 25346.52665036 .00000321 00000-0 15087-3 0 9992 2 26931 67.0515 7.0299 0007429 270.0603 89.9648 14.31854692263721 SAUDISAT 1C 1 27607U 02058C 25347.00785934 .00003216 00000-0 40082-3 0 9993 2 27607 64.5547 344.7703 0072237 296.5461 62.8252 14.82392574236851 CUTE-1 1 27844U 03031E 25347.01153825 .00000577 00000-0 26952-3 0 9994 2 27844 98.6765 352.9111 0009775 12.6791 347.4632 14.24179528165176 CUBESAT XI 4 1 27848U 03031J 25346.97818520 .00000480 00000-0 23011-3 0 9998 2 27848 98.6792 352.7398 0009979 30.1158 330.0593 14.23487467164887 MOZHAYETS 4 1 27939U 03042A 25347.05972263 .00002025 00000-0 32349-3 0 9997 2 27939 98.3366 161.2680 0012078 134.9302 339.1380 14.72972512188140 CUBESAT XI 5 1 28895U 05043F 25346.91750934 .00003111 00000-0 50413-3 0 9994 2 28895 98.2721 133.9982 0015361 77.6955 282.5970 14.71901702 74346 CUTE-1.7+APD 2 1 32785U 08021C 25346.97072370 .00008338 00000-0 55984-3 0 9997 2 32785 97.8081 320.0626 0007883 309.9926 50.0608 15.07048905957125 SEEDS 1 32791U 08021J 25346.90355358 .00024851 00000-0 98874-3 0 9990 2 32791 97.7445 332.0548 0001300 206.8395 153.2775 15.25261469958825 YUBELEINY 1 32953U 08025A 25346.95201883 .00000015 00000-0 38254-4 0 9995 2 32953 82.5019 111.2910 0019005 0.6514 359.4588 12.43171900796557 KKS-1 (KISEKI) 1 33499U 09002H 25347.01205900 .00002861 00000-0 36349-3 0 9992 2 33499 98.1172 261.6121 0008129 163.4887 196.6592 14.82435704908603 SWISSCUBE 1 35932U 09051B 25346.97619147 .00002379 00000-0 48444-3 0 9999 2 35932 98.4141 246.5608 0008128 73.7837 286.4257 14.61959751861946 BEESAT 1 35933U 09051C 25346.68776356 .00002032 00000-0 42158-3 0 9996 2 35933 98.4071 246.2790 0006549 86.3913 273.8036 14.61278670861947 ITUPSAT 1 1 35935U 09051E 25346.99698245 .00001702 00000-0 36449-3 0 9991 2 35935 98.4167 245.9717 0008735 94.2056 266.0142 14.60034439861567 XIWANG-1 (HOPE-1) 1 36122U 09072B 25347.04563843 -.00000014 00000-0 80132-4 0 9990 2 36122 100.3774 299.0788 0007056 302.4276 57.6154 13.16433133768516 TISAT 1 1 36799U 10035E 25346.77735322 .00026259 00000-0 11020-2 0 9999 2 36799 98.0593 273.1699 0003356 132.5694 227.5825 15.23455242839244 JUGNU 1 37839U 11058B 25346.41065760 .00000599 00000-0 17299-3 0 9998 2 37839 19.9625 3.0995 0018605 172.9513 316.1789 14.13696667732565 SRMSAT 1 37841U 11058D 25347.03845596 .00000506 00000-0 13117-3 0 9996 2 37841 19.9710 106.1426 0011768 316.7615 198.8861 14.11511594731480 HORYU 2 1 38340U 12025D 25346.79448224 .00006140 00000-0 65060-3 0 9999 2 38340 98.1950 107.6131 0009280 73.8558 286.3679 14.89470316720964 STRAND 1 1 39090U 13009E 25346.73923578 .00000605 00000-0 21839-3 0 9995 2 39090 98.3822 166.6307 0009724 70.8381 289.3858 14.37005102670282 CUBEBUG 1 1 39153U 13018D 25346.96208381 .00007135 00000-0 64590-3 0 9994 2 39153 98.1412 134.0947 0012938 48.9267 311.3068 14.95664026683210 ZACUBE 1 39417U 13066B 25346.85863495 .00007005 00000-0 57114-3 0 9991 2 39417 97.8066 303.4041 0041920 146.5952 213.7929 14.99088052652793 TRITON 1 1 39427U 13066M 25347.04652068 .00005592 00000-0 68460-3 0 9991 2 39427 97.8310 256.1563 0093246 120.0659 240.9841 14.80494646646538 GOMX 1 1 39430U 13066Q 25347.03796594 .00004411 00000-0 67583-3 0 9991 2 39430 97.6590 194.1447 0129750 315.6300 43.4566 14.68589249642588 HUMSAT D 1 39433U 13066T 25346.96297128 .00124935 00000-0 16529-2 0 9991 2 39433 97.5016 348.5540 0008457 136.7253 223.4668 15.57857116657827 CUBEBUG 2 1 39440U 13066AA 25346.80623535 .00008328 00000-0 80135-3 0 9999 2 39440 97.8705 290.4776 0057908 285.6375 73.8458 14.91973898649180 FUNCUBE 1 1 39444U 13066AE 25346.85435673 .00013132 00000-0 88895-3 0 9992 2 39444 97.8061 310.1338 0040423 115.4885 245.0531 15.05959072651589 UWE-3 1 39446U 13066AG 25346.82146252 .00007966 00000-0 71419-3 0 9995 2 39446 97.8477 297.1713 0049487 218.9472 140.8180 14.95103595649716 UNISAT 6 1 40012U 14033C 25346.94828608 .00005033 00000-0 56019-3 0 9998 2 40012 97.7613 138.3998 0045592 323.3951 36.4152 14.86803343618471 DUCHIFAT 1 1 40021U 14033M 25347.03531929 .00049389 00000-0 12066-2 0 9991 2 40021 98.0793 18.8803 0007426 34.0451 326.1268 15.40648601626893 QB50P1 1 40025U 14033R 25346.95020145 .00013616 00000-0 74266-3 0 9993 2 40025 98.0971 340.5587 0010473 134.3992 225.8098 15.14458664624803 OBJECT G 1 40905U 15049G 25347.05231543 .00036230 00000-0 57250-3 0 9997 2 40905 97.4854 16.5615 0006799 167.1132 193.0296 15.53378434567431 LILACSAT 2 1 40908U 15049K 25347.06010366 .00021916 00000-0 46988-3 0 9990 2 40908 97.4918 12.4520 0007215 195.6808 164.4217 15.44735409566955 LQSAT 1 40958U 15057A 25346.99290101 .00001309 00000-0 19463-3 0 9994 2 40958 97.6608 344.7345 0017594 152.3184 207.8967 14.76450729547835 CHUBUSAT 2 1 41338U 16012B 25346.75108788 .00009850 00000-0 46110-3 0 9990 2 41338 30.9975 102.7386 0009189 337.9728 22.0517 15.18387108540038 CHUBUSAT 3 1 41339U 16012C 25347.00998766 .00005935 00000-0 29161-3 0 9990 2 41339 31.0050 106.5558 0009331 332.2176 27.7965 15.16490900539896 PRATHAM 1 41783U 16059A 25346.97391495 .00001338 00000-0 24610-3 0 9992 2 41783 97.8270 347.1297 0032872 91.6271 268.8699 14.66832658492214 ALSAT 1N 1 41789U 16059G 25346.97287308 .00002145 00000-0 37286-3 0 9995 2 41789 97.8024 353.6768 0027476 64.5939 295.8106 14.68871309492666